Regional Weather Roundup
Issued by NWS Goodland, KS

Home | Current Version | Previous Version | Graphics & Text | Print | Product List | Glossary On
Versions: 1 2 3 4 5 6 7 8 9 10 11 12 13 14 15 16 17 18 19 20 21 22 23 24 25 26 27 28 29 30 31 32 33 34 35 36 37 38 39 40 41 42 43 44 45 46 47 48 49 50
000
ASUS43 KGLD 021608
RWRGLD

GOODLAND FORECAST AREA HOURLY WEATHER ROUNDUP
NATIONAL WEATHER SERVICE GOODLAND KS
1000 AM MDT WED SEP 02 2015

...OFFICIAL OBSERVATIONS...

CITY           SKY/WX    TMP DP  RH WIND       PRES   REMARKS
GOODLAND KS    SUNNY     84  51  31 NW10      29.99S
HILL CITY KS   SUNNY     86  59  39 S10       29.91F
IMPERIAL NEB   SUNNY     80  53  39 W7        29.96R
MCCOOK NEB     SUNNY     82  60  47 SW5       29.92S
AKRON CO       SUNNY     82  43  25 NW13      30.07R
BURLINGTON CO  MOSUNNY   85  47  26 N6        30.04R
LIMON CO       PTSUNNY   78  44  29 N13       30.13R
$$

...UNOFFICIAL OBSERVATIONS...

CITY           SKY/WX    TMP DP  RH WIND       PRES   REMARKS
COLBY KS       SUNNY     84  61  45 CALM      29.97R
LENORA KS        N/A     83  32  16 MISG        N/A
NORTON KS      SUNNY     81  55  41 S5        29.91S
TRENTON NEB      N/A     84  32  15 CALM        N/A
$$



USA.gov is the U.S. government's official web portal to all federal, state and local government web resources and services.